Flood From: 24-02-2018 06:00 Until: 25-02-2018 06:00 warning for: Flood Level: Yellow info button

Although rather usual in this region, locally or potentially dangerous phenomena are expected. (such as local winds, summer thunderstorms, rising streams or high waves) Be aware and pay attention to the latest weather updates, especially if you carry out activities exposed to weather or close to a stream or shoreline. 


Meteo18 Weather Cam more information Meteo18 Weather Cam


Thunder radar more information blitzortung!


Rain radar more information rain snow radar


Visit our other weather sites:

Template documentation
and downloads

And another site



Weather Underground History page Text

Daily Summary for December 7, 2017 Units:  Metric    English   Both
« Previous Day
Next Day »
Daily Weekly Monthly Yearly Custom
  High: Low: Average:
Temperature: -17.8 °C -19 °C -16.7 °C
Dew Point: -17.8 °C -19.2 °C -17.1 °C
Humidity: Humidity % 86 % 94 %
Wind Speed: 0 km/h 0 km/h 15.1 km/h
Wind Gust: 0 km/h - -
Wind:- - SSW
Pressure: 0 hPa 34405.1 hPa -
Precipitation: 200.66 mm    
Historical Graphs
 
 
Tabular Data for December 7, 2017
Time Temperature Dew Point Pressure Wind Wind Speed Wind Gust Humidity Rainfall Rate (Hourly)
-17.8 °C -17.8 °C 0 hPa Calm     Humidity % 0 mm
00:02 -17.3 °C -17.6 °C 34865.6 hPa SSE 2.6 km/h 12.9 km/h 96 % 0 mm
00:07 -17.3 °C -17.7 °C 34865.6 hPa SSE 2.6 km/h 12.9 km/h 95 % 0 mm
00:12 -17.3 °C -17.7 °C 34865.6 hPa SSE 2.6 km/h 15.6 km/h 95 % 0 mm
00:17 -17.3 °C -17.6 °C 34865.6 hPa Calm   15.6 km/h 96 % 0 mm
00:22 -17.3 °C -17.7 °C 34865.6 hPa SE 2.6 km/h 18.2 km/h 96 % 0 mm
00:27 -17.3 °C -17.7 °C 34865.6 hPa Calm   18.2 km/h 96 % 0 mm
00:32 -17.3 °C -17.7 °C 34852.1 hPa SSE 2.6 km/h 10.3 km/h 96 % 0 mm
00:42 -17.3 °C -17.7 °C 34852.1 hPa SSE 5.1 km/h 10.3 km/h 96 % 0 mm
00:47 -17.3 °C -17.7 °C 34852.1 hPa Calm   12.9 km/h 96 % 0 mm
00:52 -17.3 °C -17.7 °C 34852.1 hPa South 10.3 km/h 12.9 km/h 96 % 0 mm
00:57 -17.3 °C -17.7 °C 34852.1 hPa SSW 2.6 km/h 12.9 km/h 96 % 0 mm
01:02 -17.4 °C -17.7 °C 34852.1 hPa SSW 5.1 km/h 10.3 km/h 96 % 0 mm
01:07 -17.4 °C -17.7 °C 34852.1 hPa SSW 5.1 km/h 10.3 km/h 96 % 0 mm
01:12 -17.4 °C -17.8 °C 34852.1 hPa SSE 7.7 km/h 10.3 km/h 96 % 0 mm
01:17 -17.5 °C -17.8 °C 34852.1 hPa SSW 5.1 km/h 10.3 km/h 96 % 0 mm
01:22 -17.5 °C -17.8 °C 34852.1 hPa South 5.1 km/h 10.3 km/h 96 % 0 mm
01:27 -17.6 °C -17.9 °C 34852.1 hPa South 5.1 km/h 10.3 km/h 96 % 0 mm
01:37 -17.6 °C -17.9 °C 34841.9 hPa SSW 7.7 km/h 15.6 km/h 96 % 0 mm
01:42 -17.6 °C -17.9 °C 34841.9 hPa SSE 2.6 km/h 12.9 km/h 96 % 0 mm
01:47 -17.6 °C -17.9 °C 34841.9 hPa SSE 12.9 km/h 12.9 km/h 96 % 0 mm
01:52 -17.6 °C -17.9 °C 34831.8 hPa South 10.3 km/h 15.6 km/h 96 % 0 mm
02:02 -17.7 °C -18 °C 34831.8 hPa South 10.3 km/h 15.6 km/h 96 % 0 mm
02:12 -17.8 °C -18.1 °C 34831.8 hPa SSE 2.6 km/h 15.6 km/h 96 % 0 mm
02:17 -17.8 °C -18.1 °C 34831.8 hPa SE 5.1 km/h 15.6 km/h 96 % 0 mm
02:22 -17.8 °C -18.2 °C 34831.8 hPa SSE 7.7 km/h 15.6 km/h 96 % 0 mm
02:27 -17.8 °C -18.2 °C 34831.8 hPa SSE 5.1 km/h 12.9 km/h 96 % 0 mm
02:32 -17.8 °C -18.2 °C 34831.8 hPa SSE 2.6 km/h 10.3 km/h 96 % 0 mm
02:37 -17.8 °C -18.2 °C 34831.8 hPa South 2.6 km/h 10.3 km/h 96 % 0 mm
02:42 -17.8 °C -18.2 °C 34831.8 hPa Calm   10.3 km/h 96 % 0 mm
02:47 -17.8 °C -18.2 °C 34831.8 hPa SSE 2.6 km/h 10.3 km/h 96 % 0 mm
02:52 -17.9 °C -18.2 °C 34831.8 hPa SSE 5.1 km/h 10.3 km/h 96 % 0 mm
02:57 -17.9 °C -18.3 °C 34831.8 hPa SSW 5.1 km/h 12.9 km/h 96 % 0 mm
03:02 -17.9 °C -18.3 °C 34831.8 hPa South 2.6 km/h 12.9 km/h 96 % 0 mm
03:07 -17.9 °C -18.3 °C 34831.8 hPa Calm   12.9 km/h 96 % 0 mm
03:12 -17.9 °C -18.3 °C 34831.8 hPa SSE 2.6 km/h 10.3 km/h 96 % 0 mm
03:17 -18 °C -18.3 °C 34818.2 hPa Calm   7.7 km/h 96 % 0 mm
03:22 -18 °C -18.3 °C 34818.2 hPa SSW 7.7 km/h 7.7 km/h 96 % 0 mm
03:27 -18.1 °C -18.4 °C 34818.2 hPa SW 5.1 km/h 12.9 km/h 96 % 0 mm
03:32 -18.2 °C -18.5 °C 34818.2 hPa SSW 2.6 km/h 12.9 km/h 96 % 0 mm
03:42 -18.3 °C -18.6 °C 34808.1 hPa SSE 2.6 km/h 12.9 km/h 96 % 0 mm
03:47 -18.3 °C -18.7 °C 34808.1 hPa SSE 2.6 km/h 12.9 km/h 96 % 0 mm
03:57 -18.4 °C -18.6 °C 34808.1 hPa Calm   12.9 km/h 97 % 0 mm
04:02 -18.4 °C -18.6 °C 34808.1 hPa Calm   12.9 km/h 97 % 0 mm
04:07 -18.4 °C -18.6 °C 34808.1 hPa SSE 5.1 km/h 10.3 km/h 97 % 0 mm
04:17 -18.3 °C -18.6 °C 34797.9 hPa SSW 5.1 km/h 5.1 km/h 97 % 0 mm
04:22 -18.3 °C -18.6 °C 34797.9 hPa SSW 5.1 km/h 7.7 km/h 97 % 0 mm
04:27 -18.4 °C -18.6 °C 34797.9 hPa SE 7.7 km/h 7.7 km/h 97 % 0 mm
04:32 -18.4 °C -18.7 °C 34797.9 hPa Calm   10.3 km/h 97 % 0 mm
04:37 -18.4 °C -18.7 °C 34797.9 hPa SSE 2.6 km/h 15.6 km/h 97 % 0 mm
04:47 -18.4 °C -18.7 °C 34797.9 hPa Calm   15.6 km/h 97 % 0 mm
04:52 -18.4 °C -18.7 °C 34797.9 hPa SW 7.7 km/h 10.3 km/h 97 % 0 mm
05:02 -18.4 °C -18.7 °C 34797.9 hPa SSW 7.7 km/h 12.9 km/h 97 % 0 mm
05:07 -18.4 °C -18.7 °C 34797.9 hPa SSW 5.1 km/h 12.9 km/h 97 % 0 mm
05:12 -18.4 °C -18.7 °C 34797.9 hPa SW 7.7 km/h 12.9 km/h 97 % 0 mm
05:17 -18.4 °C -18.7 °C 34797.9 hPa South 12.9 km/h 23.3 km/h 97 % 0 mm
05:22 -18.4 °C -18.7 °C 34797.9 hPa SW 12.9 km/h 23.3 km/h 97 % 0 mm
05:32 -18.5 °C -18.7 °C 34784.4 hPa SSW 10.3 km/h 18.2 km/h 97 % 0 mm
05:37 -18.6 °C -18.8 °C 34784.4 hPa SSE 15.6 km/h 25.9 km/h 97 % 0 mm
05:42 -18.6 °C -18.8 °C 34784.4 hPa SW 15.6 km/h 25.9 km/h 97 % 0 mm
05:47 -18.7 °C -18.9 °C 34784.4 hPa SSW 7.7 km/h 28.5 km/h 97 % 0 mm
05:52 -18.7 °C -18.9 °C 34784.4 hPa SSW 10.3 km/h 28.5 km/h 97 % 0 mm
05:57 -18.7 °C -18.9 °C 34784.4 hPa SSW 5.1 km/h 28.5 km/h 97 % 0 mm
06:02 -18.7 °C -18.9 °C 34784.4 hPa SW 10.3 km/h 25.9 km/h 97 % 0 mm
06:07 -18.8 °C -19 °C 34784.4 hPa SW 20.8 km/h 31.1 km/h 97 % 0 mm
06:12 -18.8 °C -19.1 °C 34784.4 hPa SW 12.9 km/h 31.1 km/h 97 % 0 mm
06:17 -18.8 °C -19.1 °C 34784.4 hPa SW 23.3 km/h 31.1 km/h 97 % 0 mm
06:22 -18.8 °C -19.1 °C 34784.4 hPa SW 23.3 km/h 31.1 km/h 97 % 0 mm
06:32 -18.8 °C -19.1 °C 34784.4 hPa SSW 28.5 km/h 31.1 km/h 97 % 0 mm
06:37 -18.8 °C -19.1 °C 34784.4 hPa SSW 18.2 km/h 28.5 km/h 97 % 0 mm
06:42 -18.9 °C -19.1 °C 34774.2 hPa SW 18.2 km/h 33.6 km/h 97 % 0 mm
06:47 -18.9 °C -19.2 °C 34774.2 hPa SW 10.3 km/h 33.6 km/h 97 % 0 mm
06:52 -18.9 °C -19.1 °C 34774.2 hPa WSW 15.6 km/h 33.6 km/h 97 % 0 mm
07:02 -18.8 °C -19.1 °C 34774.2 hPa SSW 10.3 km/h 23.3 km/h 97 % 0 mm
07:07 -18.8 °C -19.1 °C 34774.2 hPa SW 25.9 km/h 25.9 km/h 97 % 0 mm
07:12 -18.9 °C -19.2 °C 34774.2 hPa SW 15.6 km/h 28.5 km/h 97 % 0 mm
07:17 -18.9 °C -19.2 °C 34774.2 hPa SW 20.8 km/h 28.5 km/h 97 % 0 mm
07:22 -18.9 °C -19.2 °C 34784.4 hPa WSW 7.7 km/h 28.5 km/h 97 % 0 mm
07:27 -18.9 °C -19.2 °C 34774.2 hPa SSW 15.6 km/h 23.3 km/h 97 % 0 mm
07:32 -18.9 °C -19.2 °C 34774.2 hPa SW 15.6 km/h 23.3 km/h 97 % 0 mm
07:42 -18.9 °C -19.2 °C 34774.2 hPa SW 10.3 km/h 23.3 km/h 97 % 0 mm
07:47 -18.9 °C -19.1 °C 34774.2 hPa SW 7.7 km/h 20.8 km/h 97 % 0 mm
07:52 -18.8 °C -19.1 °C 34774.2 hPa SSW 12.9 km/h 18.2 km/h 97 % 0 mm
07:57 -18.8 °C -19.1 °C 34774.2 hPa SSW 5.1 km/h 23.3 km/h 97 % 0 mm
08:02 -18.8 °C -19.1 °C 34774.2 hPa SSE 10.3 km/h 23.3 km/h 97 % 0 mm
08:12 -18.8 °C -19.1 °C 34774.2 hPa SSW 10.3 km/h 23.3 km/h 97 % 0 mm
08:22 -18.9 °C -19.1 °C 34774.2 hPa SW 20.8 km/h 25.9 km/h 97 % 0 mm
08:27 -18.9 °C -19.1 °C 34774.2 hPa WSW 10.3 km/h 28.5 km/h 97 % 0 mm
08:32 -18.9 °C -19.2 °C 34774.2 hPa South 12.9 km/h 28.5 km/h 97 % 0 mm
08:42 -19 °C -19.2 °C 34774.2 hPa South 7.7 km/h 25.9 km/h 97 % 0 mm
08:52 -19 °C -19.2 °C 34774.2 hPa SSW 2.6 km/h 20.8 km/h 97 % 0 mm
08:57 -19 °C -19.2 °C 34774.2 hPa SSW 10.3 km/h 12.9 km/h 97 % 0 mm
09:02 -18.9 °C -19.2 °C 34774.2 hPa SSW 12.9 km/h 23.3 km/h 97 % 0 mm
09:07 -18.9 °C -19.1 °C 34774.2 hPa SSW 10.3 km/h 23.3 km/h 97 % 0 mm
09:12 -18.8 °C -19.1 °C 34760.7 hPa SSW 10.3 km/h 23.3 km/h 97 % 0 mm
09:17 -18.9 °C -19.1 °C 34774.2 hPa SSW 10.3 km/h 23.3 km/h 97 % 0 mm
09:22 -18.9 °C -19.1 °C 34760.7 hPa SW 12.9 km/h 20.8 km/h 97 % 0 mm
09:27 -18.8 °C -19.1 °C 34774.2 hPa SSW 15.6 km/h 20.8 km/h 97 % 0 mm
09:32 -18.8 °C -19.1 °C 34760.7 hPa SW 12.9 km/h 20.8 km/h 97 % 0 mm
09:42 -18.8 °C -19.1 °C 34760.7 hPa South 12.9 km/h 25.9 km/h 97 % 0 mm
09:47 -18.8 °C -19.1 °C 34760.7 hPa SSW 10.3 km/h 25.9 km/h 97 % 0 mm
09:52 -18.8 °C -19 °C 34760.7 hPa SW 10.3 km/h 20.8 km/h 97 % 0 mm
09:57 -18.7 °C -18.9 °C 34760.7 hPa SSW 15.6 km/h 20.8 km/h 97 % 0 mm
10:02 -18.7 °C -18.9 °C 34760.7 hPa SSW 15.6 km/h 23.3 km/h 97 % 0 mm
10:12 -18.7 °C -18.9 °C 34760.7 hPa SW 12.9 km/h 23.3 km/h 97 % 0 mm
10:17 -18.7 °C -18.9 °C 34760.7 hPa SSW 5.1 km/h 20.8 km/h 97 % 0 mm
10:22 -18.6 °C -18.8 °C 34760.7 hPa SW 15.6 km/h 23.3 km/h 97 % 0 mm
10:27 -18.6 °C -18.8 °C 34760.7 hPa South 15.6 km/h 23.3 km/h 97 % 0 mm
10:32 -18.6 °C -18.8 °C 34760.7 hPa SSW 12.9 km/h 23.3 km/h 97 % 0 mm
10:37 -18.6 °C -18.8 °C 34760.7 hPa SSW 7.7 km/h 25.9 km/h 97 % 0 mm
10:42 -18.6 °C -18.8 °C 34760.7 hPa SSE 2.6 km/h 25.9 km/h 97 % 0 mm
10:47 -18.6 °C -18.8 °C 34760.7 hPa SSW 20.8 km/h 25.9 km/h 97 % 0 mm
10:52 -18.5 °C -18.7 °C 34750.5 hPa SSW 10.3 km/h 23.3 km/h 97 % 0 mm
10:57 -18.4 °C -18.7 °C 34750.5 hPa SSW 12.9 km/h 23.3 km/h 97 % 0 mm
11:02 -18.4 °C -18.6 °C 34750.5 hPa SW 20.8 km/h 23.3 km/h 97 % 0 mm
11:12 -18.2 °C -18.4 °C 34740.4 hPa SSW 10.3 km/h 23.3 km/h 97 % 0 mm
11:17 -18.1 °C -18.3 °C 34740.4 hPa South 5.1 km/h 23.3 km/h 97 % 0 mm
11:22 -17.9 °C -18.1 °C 34740.4 hPa South 2.6 km/h 23.3 km/h 98 % 0 mm
11:32 -17.7 °C -17.9 °C 34740.4 hPa South 2.6 km/h 23.3 km/h 98 % 0 mm
11:42 -17.6 °C -17.7 °C 34726.8 hPa SSW 15.6 km/h 23.3 km/h 98 % 0 mm
11:47 -17.5 °C -17.7 °C 34716.7 hPa South 7.7 km/h 23.3 km/h 98 % 0 mm
11:52 -17.4 °C -17.6 °C 34716.7 hPa SSW 7.7 km/h 23.3 km/h 98 % 0 mm
12:02 -17.3 °C -17.4 °C 34703.1 hPa SSW 5.1 km/h 23.3 km/h 98 % 0 mm
12:07 -17.1 °C -17.3 °C 34703.1 hPa SSW 15.6 km/h 25.9 km/h 98 % 0 mm
12:12 -17 °C -17.2 °C 34703.1 hPa SW 20.8 km/h 25.9 km/h 98 % 0 mm
12:17 -16.8 °C -17 °C 34703.1 hPa SSW 12.9 km/h 25.9 km/h 98 % 0 mm
12:22 -16.7 °C -16.9 °C 34703.1 hPa SW 20.8 km/h 28.5 km/h 98 % 0 mm
12:27 -16.6 °C -16.8 °C 34703.1 hPa SW 15.6 km/h 33.6 km/h 98 % 0 mm
12:37 -16.4 °C -16.6 °C 34693 hPa SW 28.5 km/h 33.6 km/h 98 % 0 mm
12:42 -16.3 °C -16.5 °C 34693 hPa SSW 31.1 km/h 38.8 km/h 98 % 0 mm
12:47 -16.2 °C -16.4 °C 34682.8 hPa SSW 25.9 km/h 41.4 km/h 98 % 0 mm
12:52 -16.2 °C -16.3 °C 34682.8 hPa SSW 20.8 km/h 41.4 km/h 98 % 0 mm
12:57 -16.1 °C -16.2 °C 34682.8 hPa SSW 28.5 km/h 36.2 km/h 98 % 0 mm
13:02 -15.9 °C -16.1 °C 34682.8 hPa WSW 25.9 km/h 36.2 km/h 98 % 0 mm
13:07 -15.8 °C -15.9 °C 34669.3 hPa SSW 15.6 km/h 33.6 km/h 98 % 0 mm
13:12 -15.6 °C -15.8 °C 34669.3 hPa SSW 15.6 km/h 38.8 km/h 97 % 0 mm
13:17 -15.4 °C -15.7 °C 34659.1 hPa SW 25.9 km/h 38.8 km/h 97 % 0 mm
13:22 -15.4 °C -15.8 °C 34659.1 hPa SSW 23.3 km/h 38.8 km/h 95 % 0 mm
13:27 -15.3 °C -15.8 °C 34659.1 hPa SSW 23.3 km/h 36.2 km/h 94 % 0 mm
13:32 -15.3 °C -15.8 °C 34645.6 hPa SSW 23.3 km/h 46.7 km/h 93 % 0 mm
13:37 -15.2 °C -15.9 °C 34645.6 hPa SW 23.3 km/h 46.7 km/h 92 % 0 mm
13:42 -15.2 °C -15.8 °C 34645.6 hPa SSW 15.6 km/h 41.4 km/h 92 % 0 mm
13:52 -15.1 °C -15.7 °C 34635.4 hPa South 7.7 km/h 38.8 km/h 92 % 0 mm
13:57 -14.9 °C -15.6 °C 34635.4 hPa SSW 15.6 km/h 31.1 km/h 92 % 0 mm
14:07 -14.8 °C -15.6 °C 34635.4 hPa South 12.9 km/h 33.6 km/h 91 % 0 mm
14:17 -14.7 °C -15.6 °C 34625.2 hPa SSW 20.8 km/h 36.2 km/h 90 % 0 mm
14:22 -14.7 °C -15.6 °C 34625.2 hPa SSW 23.3 km/h 36.2 km/h 90 % 0 mm
14:32 -14.6 °C -15.6 °C 34611.7 hPa SW 31.1 km/h 36.2 km/h 89 % 0 mm
14:37 -14.6 °C -15.5 °C 34611.7 hPa SW 36.2 km/h 36.2 km/h 89 % 0 mm
14:42 -14.6 °C -15.5 °C 34601.5 hPa SSW 18.2 km/h 44.1 km/h 89 % 0 mm
14:47 -14.5 °C -15.4 °C 34601.5 hPa SSW 20.8 km/h 44.1 km/h 89 % 0 mm
14:57 -14.4 °C -15.3 °C 34601.5 hPa South 15.6 km/h 41.4 km/h 89 % 0 mm
15:02 -14.3 °C -15.3 °C 34591.4 hPa South 20.8 km/h 36.2 km/h 89 % 0 mm
15:12 -14.3 °C -15.3 °C 34591.4 hPa South 20.8 km/h 28.5 km/h 88 % 0 mm
15:22 -14.2 °C -15.2 °C 34577.8 hPa South 12.9 km/h 33.6 km/h 88 % 0 mm
15:27 -14.2 °C -15.2 °C 34577.8 hPa SSW 20.8 km/h 33.6 km/h 88 % 0 mm
15:32 -14.2 °C -15.2 °C 34577.8 hPa SSW 18.2 km/h 33.6 km/h 88 % 0 mm
15:52 -14.1 °C -15.2 °C 34567.7 hPa SSW 12.9 km/h 36.2 km/h 87 % 0 mm
15:57 -14.1 °C -15.2 °C 34567.7 hPa SSW 28.5 km/h 36.2 km/h 87 % 0 mm
16:02 -14.1 °C -15.2 °C 34554.1 hPa SW 12.9 km/h 36.2 km/h 87 % 0 mm
16:12 -14.1 °C -15.2 °C 34554.1 hPa SW 12.9 km/h 28.5 km/h 87 % 0 mm
16:37 -14.1 °C -15.2 °C 34544 hPa SSW 12.9 km/h 23.3 km/h 87 % 0 mm
16:42 -14.1 °C -15.2 °C 34544 hPa SSW 15.6 km/h 23.3 km/h 87 % 0 mm
16:47 -14.1 °C -15.2 °C 34544 hPa SSW 20.8 km/h 23.3 km/h 87 % 0 mm
16:57 -14 °C -15.2 °C 34533.8 hPa SSW 20.8 km/h 23.3 km/h 86 % 0 mm
17:07 -14 °C -15.2 °C 34533.8 hPa SSW 15.6 km/h 25.9 km/h 86 % 0 mm
17:12 -14 °C -15.2 °C 34533.8 hPa SSW 20.8 km/h 25.9 km/h 86 % 0 mm
17:22 -14 °C -15.2 °C 34533.8 hPa SSW 12.9 km/h 28.5 km/h 86 % 0 mm
17:27 -14 °C -15.1 °C 34520.3 hPa SW 20.8 km/h 28.5 km/h 87 % 0 mm
17:32 -14 °C -15.2 °C 34520.3 hPa SSW 15.6 km/h 28.5 km/h 86 % 0 mm
17:47 -14 °C -15.2 °C 34520.3 hPa SW 23.3 km/h 31.1 km/h 86 % 0 mm
17:52 -14 °C -15.1 °C 34520.3 hPa SSW 18.2 km/h 31.1 km/h 87 % 0 mm
17:57 -14.1 °C -15.2 °C 34520.3 hPa SSW 18.2 km/h 31.1 km/h 87 % 0 mm
18:02 -14.1 °C -15.1 °C 34510.1 hPa SW 15.6 km/h 28.5 km/h 88 % 7.62 mm
18:12 -14.2 °C -15.2 °C 34510.1 hPa SW 15.6 km/h 31.1 km/h 89 % 12.7 mm
18:17 -14.2 °C -15.1 °C 34510.1 hPa SW 12.9 km/h 31.1 km/h 90 % 12.7 mm
18:22 -14.2 °C -15.1 °C 34510.1 hPa SSW 18.2 km/h 31.1 km/h 90 % 12.7 mm
18:32 -14.1 °C -15.1 °C 34496.6 hPa SSW 18.2 km/h 31.1 km/h 89 % 20.32 mm
18:42 -14.2 °C -15.1 °C 34496.6 hPa SSW 10.3 km/h 25.9 km/h 90 % 25.4 mm
18:57 -14.2 °C -15.1 °C 34496.6 hPa SW 25.9 km/h 31.1 km/h 90 % 38.1 mm
19:02 -14.2 °C -15.1 °C 34486.4 hPa SSW 23.3 km/h 33.6 km/h 90 % 33.02 mm
19:12 -14.2 °C -15.1 °C 34486.4 hPa SSW 23.3 km/h 38.8 km/h 89 % 38.1 mm
19:17 -14.2 °C -15.1 °C 34476.3 hPa SW 28.5 km/h 38.8 km/h 89 % 38.1 mm
19:22 -14.2 °C -15.1 °C 34486.4 hPa SSW 33.6 km/h 44.1 km/h 89 % 38.1 mm
19:27 -14.1 °C -15.1 °C 34476.3 hPa SSW 20.8 km/h 46.7 km/h 89 % 45.72 mm
19:52 -14.2 °C -15 °C 34476.3 hPa SW 44.1 km/h 57 km/h 90 % 50.8 mm
19:57 -14.2 °C -15 °C 34476.3 hPa SW 31.1 km/h 59.5 km/h 91 % 50.8 mm
20:02 -14.2 °C -14.9 °C 34476.3 hPa SW 31.1 km/h 59.5 km/h 92 % 50.8 mm
20:07 -14.3 °C -14.8 °C 34476.3 hPa WSW 38.8 km/h 59.5 km/h 93 % 45.72 mm
20:12 -14.3 °C -14.8 °C 34462.7 hPa SW 36.2 km/h 54.4 km/h 93 % 58.42 mm
20:17 -14.3 °C -14.8 °C 34462.7 hPa SW 41.4 km/h 59.5 km/h 93 % 58.42 mm
20:22 -14.3 °C -14.9 °C 34462.7 hPa SSW 31.1 km/h 59.5 km/h 93 % 58.42 mm
20:27 -14.3 °C -14.8 °C 34462.7 hPa SW 28.5 km/h 51.8 km/h 94 % 58.42 mm
20:32 -14.4 °C -14.9 °C 34462.7 hPa SW 28.5 km/h 51.8 km/h 94 % 58.42 mm
20:42 -14.4 °C -14.8 °C 34462.7 hPa SSW 38.8 km/h 51.8 km/h 95 % 58.42 mm
21:02 -14.4 °C -14.7 °C 34462.7 hPa SW 31.1 km/h 57 km/h 96 % 50.8 mm
21:17 -14.3 °C -14.7 °C 34452.6 hPa WSW 38.8 km/h 54.4 km/h 96 % 45.72 mm
21:22 -14.3 °C -14.7 °C 34452.6 hPa SW 28.5 km/h 54.4 km/h 96 % 38.1 mm
21:37 -14.3 °C -14.7 °C 34452.6 hPa SW 36.2 km/h 51.8 km/h 96 % 38.1 mm
21:47 -14.3 °C -14.7 °C 34452.6 hPa SW 28.5 km/h 51.8 km/h 96 % 45.72 mm
21:52 -14.3 °C -14.7 °C 34442.4 hPa SW 31.1 km/h 46.7 km/h 96 % 38.1 mm
22:07 -14.3 °C -14.5 °C 34442.4 hPa SW 28.5 km/h 49.2 km/h 97 % 33.02 mm
22:12 -14.3 °C -14.5 °C 34442.4 hPa WSW 44.1 km/h 51.8 km/h 97 % 33.02 mm
22:17 -14.3 °C -14.5 °C 34428.8 hPa WSW 28.5 km/h 51.8 km/h 97 % 25.4 mm
22:22 -14.3 °C -14.5 °C 34428.8 hPa SW 20.8 km/h 51.8 km/h 97 % 20.32 mm
22:37 -14.3 °C -14.5 °C 34418.7 hPa SW 31.1 km/h 49.2 km/h 97 % 12.7 mm
22:42 -14.3 °C -14.5 °C 34418.7 hPa WSW 33.6 km/h 49.2 km/h 97 % 12.7 mm
22:47 -14.3 °C -14.5 °C 34405.1 hPa WSW 31.1 km/h 49.2 km/h 97 % 7.62 mm
22:57 -14.2 °C -14.4 °C 34428.8 hPa SW 25.9 km/h 49.2 km/h 97 % 7.62 mm
23:02 -14.2 °C -14.4 °C 34418.7 hPa SW 33.6 km/h 49.2 km/h 97 % 12.7 mm
23:07 -14.2 °C -14.4 °C 34418.7 hPa SW 36.2 km/h 49.2 km/h 97 % 12.7 mm
23:12 -14.2 °C -14.4 °C 34428.8 hPa SW 23.3 km/h 44.1 km/h 97 % 12.7 mm
23:17 -14.2 °C -14.4 °C 34418.7 hPa SW 23.3 km/h 46.7 km/h 97 % 12.7 mm
23:22 -14.1 °C -14.3 °C 34418.7 hPa WSW 31.1 km/h 46.7 km/h 97 % 12.7 mm
23:32 -14.1 °C -14.3 °C 34428.8 hPa SW 10.3 km/h 38.8 km/h 97 % 12.7 mm
23:37 -14.1 °C -14.3 °C 34428.8 hPa WSW 23.3 km/h 36.2 km/h 97 % 7.62 mm
23:42 -14.1 °C -14.3 °C 34442.4 hPa West 10.3 km/h 33.6 km/h 97 % 7.62 mm
23:47 -14 °C -14.2 °C 34442.4 hPa SW 7.7 km/h 31.1 km/h 97 % 12.7 mm
23:57 -13.9 °C -14.2 °C 34442.4 hPa WSW 15.6 km/h 25.9 km/h 97 % 12.7 mm
Meteo18
Compliments of Weather Underground - 4 mb

Script developed by  Jim McMurry - jmcmurry@mwt.net Adapted for the template by  Wim van der Kuil - Leuven-Template.eu

You find our weather info also at:

European Weather Network

Weather Underground

Equipment we use:

Weather-station
Davis Vue

Weather-program
Meteobridge

Weather-server
Raspberry PI 2 B+

Provider
1 and 1

Davis Vue

Meteobridge

Raspberry PI 2 B+

1 and 1